Preview of NWS' New Version of Forecast
This preview is not operational and should not be used for support decisions.

Regional Weather Roundup (RWR)

Issued by National Weather Service (NWS)

                            
000
ASUS45 KBOU 180610
RWRCO 

WEATHER ROUNDUP FOR COLORADO
NATIONAL WEATHER SERVICE DENVER/BOULDER CO
1200 AM MDT THU APR 18 2019

NOTE: "FAIR" INDICATES FEW OR NO CLOUDS BELOW 12000 FEET WITH NO
SIGNIFICANT WEATHER AND/OR OBSTRUCTIONS TO VISIBILITY.

COZ001>005-013-030-031-180700-
...NORTHWEST COLORADO...
  
CITY           SKY/WX    TMP DP  RH WIND       PRES   REMARKS
CRAIG          FAIR      42  30  62 W9        30.22R                  
HAYDEN         CLOUDY    42  29  59 W13       30.22R                  
MEEKER         CLOUDY    43  27  53 SW8       30.21R                  
RANGELY        FAIR      41  29  62 SE3       30.20R                  
RABBIT EARS PA CLOUDY    27  27 100 W13G22    30.21R FOG     WCI  16  
STEAMBOAT SPGS CLOUDY    40  31  70 W5        30.19R                  
WALDEN         MOCLDY    36  23  60 W22       30.17F                  
$$

COZ006>008-011-180700-
...WEST CENTRAL VALLEYS...
  
CITY           SKY/WX    TMP DP  RH WIND       PRES   REMARKS
GRAND JUNCTION FAIR      46  28  49 SW7       30.13R                  
MONTROSE       FAIR      40  24  53 SE5       30.16R                  
EAGLE          CLOUDY    38  23  55 E7        30.18R                  
RIFLE          MOCLDY    50  26  39 NW7       30.17R                  
DELTA          FAIR      57  24  28 N10G20    30.12R                  
NUCLA          FAIR      50  19  29 N3        30.18R                  
$$

COZ017>023-064>068-180700-
...SOUTHWEST COLORADO...
  
CITY           SKY/WX    TMP DP  RH WIND       PRES   REMARKS
DURANGO        FAIR      50  21  32 N15G24    30.06R                  
CORTEZ         FAIR      40  27  59 CALM      30.12S                  
PAGOSA SPRINGS FAIR      39  25  56 CALM      30.09S                  
TELLURIDE      FAIR      37  21  52 CALM      30.24S                  
WOLF CREEK PAS FAIR      27  16  63 N10G23    30.26R WCI  17          
$$

COZ009-010-012-014-032>034-037-058>063-180700-
...CENTRAL COLORADO...
  
CITY           SKY/WX    TMP DP  RH WIND       PRES   REMARKS
ASPEN          CLOUDY    39  21  48 VRB5      30.16S                  
BUENA VISTA    FAIR      42  18  37 NW10G18   30.11R                  
COPPER MTN     FLURRIES  27  19  74 NW14G20   30.23S WCI  15          
BERTHOUD PASS  CLOUDY    19   9  63 NW28G46   30.19R WCI   1          
COTTONWOOD PAS FAIR      36  16  44 SW20G33   30.14F                  
GUNNISON       FAIR      40  21  46 CALM      30.15S                  
GRANBY         FAIR      37  25  60 W15G22    30.17R                  
KREMMLING      CLOUDY    37  30  75 N10G16    30.20R                  
LEADVILLE      MOCLDY    29  17  61 N8        30.19S WCI  21          
MONARCH PASS   FAIR      27  14  59 NW29G39   30.30F WCI  11          
SALIDA         FAIR      45  17  32 NW6       30.17R                  
SUNLIGHT       FAIR      27  19  74 NW7G23    30.29R WCI  19          
WILKERSON PASS MOCLDY    28  14  54 N10G22    30.21S WCI  19          
$$

COZ069>075-180700-
...SAN LUIS VALLEY/SANGRE DE CRISTO MOUNTAINS...
  
CITY           SKY/WX    TMP DP  RH WIND       PRES   REMARKS
ALAMOSA        FAIR      43  23  45 NW9       30.07R                  
DEL NORTE      FAIR      44  18  36 NW10      30.10S                  
LA VETA PASS   NOT AVBL                                               
SAGUACHE       FAIR      41  19  42 CALM      30.09S                  
$$

COZ035-036-038>040-180700-
...NORTHERN COLORADO FRONT RANGE...
  
CITY           SKY/WX    TMP DP  RH WIND       PRES   REMARKS
DENVER INTL AP MOCLDY    43  37  79 NE22G32   30.08R                  
AURORA         MOCLDY    45  37  74 NE7       30.08R                  
FRONT RANGE AP CLOUDY    46  37  72 NE18G26   30.09R                  
ERIE MUNI ARPT MOCLDY    47  35  63 NE14G20   30.14R                  
BOULDER MUN AP MOCLDY    46  34  61 N8G20     30.11R                  
CENTENNIAL     MOCLDY    44  35  70 SE5       30.07R                  
BROOMFIELD     FAIR      45  34  65 NE10      30.10R                  
FORT COLLINS   FAIR      44  35  70 N16G26    30.07R                  
LONGMONT       CLOUDY    47  35  63 E13G21    30.12R                  
$$

COZ041-046-047-076>085-087-088-180700-
...PIKES PEAK/PALMER DIVIDE AND SOUTHERN FOOTHILLS...
  
CITY           SKY/WX    TMP DP  RH WIND       PRES   REMARKS
COLO. SPRINGS  MOCLDY    46  30  53 NE23G31   30.05R                  
A. F. ACADEMY  MOCLDY    43  31  63 N9        30.06R                  
SCHRIEVER AFB  NOT AVBL                                               
CHEYENNE MTN   MOCLDY    45  33  65 NW10      30.02R                  
ELLICOTT         N/A    N/A N/A N/A NE15      30.04R                  
FALCON         FAIR      40  31  71 N22G33    30.08                   
FORT CARSON    LGT RAIN  47  35  62 N9        30.05R                  
LIMON          LGT RAIN  43  36  76 N14G24    30.07R                  
MONUMENT HILL  FAIR      36  32  87 NE7G21    30.10R                  
CANON CITY     NOT AVBL                                               
WALSENBURG     NOT AVBL                                               
TRINIDAD       FAIR      41  37  86 W14       29.99R                  
$$

COZ042>045-048>051-090-091-180700-
...NORTHEAST COLORADO...
  
CITY           SKY/WX    TMP DP  RH WIND       PRES   REMARKS
GREELEY ARPT   CLOUDY    45  35  68 N22G30    30.06R                  
AKRON          RAIN      40  39  97 N24G31    30.08R                  
BURLINGTON     CLOUDY    45  29  53 NW7       29.96R                  
WRAY           CLOUDY    46  32  57 NW14      30.00R                  
YUMA           NOT AVBL                                               
STERLING       DRIZZLE   43  41  93 W9        30.04R                  
HOLYOKE        LGT RAIN  46  37  71 W9        29.99S                  
FORT MORGAN      N/A     42  35  77 N22G28    30.08R                  
$$

COZ086-089-092>099-180700-
...SOUTHEAST COLORADO...
  
CITY           SKY/WX    TMP DP  RH WIND       PRES   REMARKS
PUEBLO         CLOUDY    52  42  69 NE12      29.98R                  
LA JUNTA       FAIR      49  36  61 N5        29.97R                  
LAMAR          CLOUDY    50  31  48 NE10      29.92R                  
SPRINGFIELD      N/A     44  31  60 N14       29.92R                  
$$